This demonstration page uses our WeatherBlox Daily Observations layout. Learn more.

Left ArrowRight Arrow

Hourly Observations for December 19, 2015

Temp ( °F °C ) Dew Point ( °F °C ) Humidity (%) Winds ( mph kmh ) Pressure ( in mb ) Visibility ( mi km ) Precip ( " mm )
12:58 am 00:58 Clear 19 -7.3 14 -10.1 81 81 Calm 30.32 1027 10 16 0.00 0.00
1:58 am 01:58 Clear 19 -7.4 15 -9.6 84 84 SE 1 2 30.34 1028 10 16 0.00 0.00
2:58 am 02:58 Clear 17 -8.6 12 -10.9 84 84 SE 6 9 30.37 1028 10 16 0.00 0.00
3:58 am 03:58 Clear 18 -7.6 15 -9.7 85 85 E 6 9 30.35 1028 10 16 0.00 0.00
4:58 am 04:58 Clear 17 -8.3 13 -10.8 82 82 SE 2 4 30.35 1028 10 16 0.00 0.00
5:58 am 05:58 Clear 17 -8.1 13 -10.4 84 84 SE 6 9 30.36 1028 10 16 0.00 0.00
6:58 am 06:58 Clear 17 -8.2 14 -10.2 86 86 ESE 5 7 30.37 1029 10 16 0.00 0.00
7:58 am 07:58 Sunny 18 -7.9 14 -10.1 84 84 SE 5 7 30.37 1028 10 16 0.00 0.00
8:58 am 08:58 Sunny 22 -5.6 17 -8.5 80 80 SE 9 15 30.36 1028 10 16 0.00 0.00
9:58 am 09:58 Sunny 26 -3.2 18 -7.7 71 71 SSE 10 17 30.35 1028 10 16 0.00 0.00
10:58 am 10:58 Sunny 30 -1 18 -7.8 60 60 SSE 16 26 30.33 1027 10 16 0.00 0.00
11:58 am 11:58 Sunny 34 1.3 22 -5.6 60 60 SSE 16 26 30.28 1026 10 16 0.00 0.00
12:58 pm 12:58 Sunny 38 3.1 25 -3.7 61 61 SSE 13 20 30.24 1024 10 16 0.00 0.00
1:58 pm 13:58 Sunny 40 4.7 27 -2.6 60 60 SSE 12 19 30.21 1023 10 16 0.00 0.00
2:58 pm 14:58 Sunny 42 5.7 29 -1.8 59 59 SE 14 22 30.18 1022 10 16 0.00 0.00
3:58 pm 15:58 Sunny 42 5.4 30 -1.1 63 63 ESE 10 17 30.15 1021 10 16 0.00 0.00
4:58 pm 16:58 Clear 39 3.7 29 -1.4 70 70 ESE 12 19 30.13 1020 10 16 0.00 0.00
5:58 pm 17:58 Clear 38 3.1 30 -1.3 73 73 ESE 12 19 30.13 1020 10 16 0.00 0.00
6:58 pm 18:58 Clear 37 3 30 -1.1 75 75 ESE 10 17 30.12 1020 10 16 0.00 0.00
7:58 pm 19:58 Clear 36 2.2 30 -1 80 80 ESE 10 17 30.10 1019 10 16 0.00 0.00
8:58 pm 20:58 Clear 34 1.2 30 -1.2 84 84 ESE 8 13 30.08 1019 10 16 0.00 0.00
9:58 pm 21:58 Clear 38 3.2 32 -0.1 79 79 SE 10 17 30.04 1017 10 16 0.00 0.00
10:58 pm 22:58 Clear 39 3.8 33 0.4 79 79 ESE 8 13 30.01 1016 10 16 0.00 0.00
11:58 pm 23:58 Clear 37 3 33 0.4 83 83 ESE 8 13 29.99 1016 10 16 0.00 0.00

Powered by AerisWeather